sat.trackr.live / text

‹ back to catalog

STARLINK-34444

NORAD 64369 · 2025-126AB

PAYLOAD ACTIVE UNKNOWN

§ Identity

Operator
Country
US
Launch date
2025-06-13
Launch site
AFWTR
Launch vehicle
Mass (kg)
RCS (m²)

Purposes: comms

External: N2YO · Heavens-Above · Gunter

§ Orbital elements

Epoch: 2026-09-20T23:28:20.805312Z

Period
94.09 min
Inclination
70.0007°
Eccentricity
0.0003609
Mean motion
15.30422458 rev/d
Perigee alt
472.1 km
Apogee alt
477.0 km
Semi-major
6,852.7 km
B*
2.7806e-4
RAAN
259.6911°
Arg perigee
272.6831°
Mean anomaly
87.3931°
Rev number
6,999

§ Raw data

STARLINK-344441 64369U 25126AB  26263.97801858  .00008084  00000+0  27806-3 0  99942 64369  70.0007 259.6911 0003609 272.6831  87.3931 15.30422458 69992

JSON: /api/v1/satellites/64369 · /tle

For live sub-satellite position, see the globe view (requires WebGL).

§ Visibility from observer

Set your observer location to see the next 7 days of passes ≥ 10°. The values pass through the URL so the page stays shareable.

No JS? Fill the form by hand. The geolocation button needs JavaScript.